Flag for U.S.A. Weather past 2 weeks in Sheboygan, Wisconsin, U.S.A.

Now
61 °F

Sunny.


Feels Like: 61 °F
Forecast: 42 / 64 °F
Wind: 10 mph from Northwest

Location: Sheboygan County Memorial Airport

Current Time: Sep 22, 2014 at 11:51:59 AM

Latest Report: Sep 22, 2014 at 10:53 AM


Visibility: 10 mi

Pressure: 30.26 "Hg

Humidity: 54%

Dew point: 44 °F

Location of SheboyganLocation

Historic Weather in Sheboygan — Graph

°F

Sheboygan temperature yesterday

Maximum temperature yesterday: 61 °F (at 12:01 PM)
Minimum temperature yesterday: 43 °F (at 11:53 PM)
Average temperature yesterday: 55 °F

Past Weeks' High & Low Weather Summary

 TemperatureHumidityPressure
High77 °F (Sep 10, 1:53 PM)100% (Sep 9, 6:02 AM)30.40 "Hg (Sep 9, 6:02 AM)
Low37 °F (Sep 22, 3:53 AM)38% (Sep 16, 2:53 PM)29.43 "Hg (Sep 10, 1:53 PM)
Average55 °F78%30.07 "Hg
* Reported Sep 7 9:53 AM — Sep 22 9:53 AM, Sheboygan, Weather by CustomWeather, © 2014

Note: Actual official high and low records may vary slightly from our data, if they occured in-between our weather recording intervals... More about our weather records

Advertising

Sheboygan weather history for previous 24 hours

 ConditionsComfort  
Time TempWeatherWind HumidityBarometerVisibility
9:53 AM
Sep 22
57 °FSunny.10 mph62%30.26 "Hg10 mi
8:53 AM52 °FSunny.7 mph80%30.25 "Hg10 mi
7:53 AM42 °FSunny.3 mph96%30.26 "Hg10 mi
6:53 AM37 °FClear.3 mph93%30.24 "Hg10 mi
5:53 AM37 °FClear.3 mph93%30.23 "Hg10 mi
4:53 AM37 °FClear.No wind93%30.21 "Hg9 mi
3:53 AM37 °FClear.No wind93%30.19 "Hg10 mi
2:53 AM41 °FClear.3 mph89%30.18 "Hg10 mi
1:53 AM41 °FClear.6 mph86%30.19 "Hg10 mi
12:53 AM43 °FClear.3 mph82%30.19 "Hg10 mi
11:53 PM
Sep 21
43 °FClear.5 mph86%30.17 "Hg10 mi
10:53 PM44 °FClear.5 mph85%30.16 "Hg10 mi
9:53 PM45 °FClear.No wind86%30.16 "Hg10 mi
8:53 PM47 °FClear.5 mph83%30.14 "Hg10 mi
7:53 PM48 °FClear.5 mph80%30.11 "Hg10 mi
6:53 PM53 °FSunny.8 mph66%30.08 "Hg10 mi
5:53 PM57 °FPartly sunny.10 mph58%30.04 "Hg10 mi
4:53 PM58 °FPassing clouds.13 mph56%30.02 "Hg10 mi
3:53 PM56 °FOvercast.16 mph67%30.00 "Hg10 mi
2:53 PM58 °FOvercast.14 mph62%29.98 "Hg10 mi
1:53 PM59 °FOvercast.18 mph64%29.95 "Hg10 mi
12:53 PM61 °FMostly cloudy.15 mph62%29.91 "Hg10 mi
12:01 PM61 °FMostly cloudy.17 mph67%29.89 "Hg10 mi
11:01 AM59 °FBroken clouds.23 mph72%29.86 "Hg10 mi
Weather by CustomWeather, © 2014

See weather overviewHow to use our weather pages